STARLINK-37138

Last updated on Sun Apr 12 2026 00:02:08 GMT+0000 (Coordinated Universal Time)

1 68308U 26057Q 26100.32680359 .00342648 00000+0 17284-2 0 9990 2 68308 97.2849 224.3200 0002237 47.1169 313.0287 15.80712344 3261
UTC large
Height (km)
Speed (km/s)
/
Latitude / Longitude
Inclination (degrees)
Orbital Period (minutes)
Azimuth
Elevation
Range (km)
Doppler Factor

Next 0 passes for location: London (51.5072 / 0.1276)

Sorry there are no passes over London.
STARLINK-37138